Location: Miss�
(46.9484°N, 0.1922°W)
Time: 02:54:32
(UTC+00:00)

Cosmos 1689 Rocket - Pass Details

Date: 02 March 2021
Orbit: 350 x 361 km, 97.5° (Epoch: 12 April)

Event Time Altitude Azimuth Distance (km) Brightness Sun altitude
Rises 18:24:41 0° 22° (NNE) 2,208 5.7 -7.1°
Reaches altitude 10° 18:26:45 10° 33° (NNE) 1,359 4.5 -7.4°
Maximum altitude 18:29:22 30° 98° (E) 682 2.8 -7.9°
Drops below altitude 10° 18:31:59 10° 163° (SSE) 1,354 4.7 -8.3°
Sets 18:34:02 0° 174° (S) 2,199 5.9 -8.7°
